Regional Weather Roundup
Issued by NWS Grand Forks, ND

Home | Current Version | Previous Version | Graphics & Text | Print | Product List | Glossary On
Versions: 1 2 3 4 5 6 7 8 9 10 11 12 13 14 15 16 17 18 19 20 21 22 23 24 25 26 27 28 29 30 31 32 33 34 35 36 37 38 39 40 41 42 43 44 45 46 47 48 49 50
230
ASUS43 KFGF 211610
RWRFGF
PRAIRIE TO PINES  WEATHER ROUNDUP
NATIONAL WEATHER SERVICE EASTERN NORTH DAKOTA/GRAND FORKS ND
1100 AM CDT THU SEP 21 2017

 **SATELLITE DATA USED TO AUGMENT SKY COVER AT AUTOMATED STATIONS**
 *****  WEATHER ACROSS EASTERN NORTH DAKOTA  *****

CITY           SKY/WX    TMP DP  RH WIND       PRES   REMARKS
GRAND FORKS    FAIR      68  51  54 S18       29.80F
GRAND FRKS AFB FAIR      67  49  51 S21       29.80S
DEVILS LAKE    FAIR      61  49  64 S15       29.76S
FARGO          FAIR      69  46  43 SE18G37   29.81F
WAHPETON ARPT  FAIR      68  45  42 SE17G26   29.83F
$$

 ***** WEATHER ACROSS CENTRAL AND WESTERN NORTH DAKOTA  *****

CITY           SKY/WX    TMP DP  RH WIND       PRES   REMARKS
BISMARCK       FAIR      70  49  47 S23G31    29.68F
MINOT          FAIR      61  43  51 CALM      29.70R
JAMESTOWN      FAIR      67  48  50 S23G32    29.76F
MINOT AFB      FAIR      59  44  56 SE8       29.69R
GARRISON         N/A     59  46  62 E7        29.68S
WILLISTON      CLOUDY    52  43  71 CALM      29.71R
DICKINSON      FAIR      59  37  44 NW15      29.68R
HETTINGER      FAIR      65  40  39 VRB5      29.68F
$$

 *****  OTHER AIRPORT OBSERVATIONS IN OUR AREA  *****

CITY           SKY/WX    TMP DP  RH WIND       PRES   REMARKS
WALHALLA       FAIR     N/A N/A N/A S10G18    29.77S
GRAFTON AIRPOR NOT AVBL
VALLEY CITY AR NOT AVBL
CANDO          NOT AVBL
CAVALIER APRT  FAIR      59  50  72 S10       29.78F
GWINNER        SUNNY     70  50  49 CALM      29.81F
SHEYENNE NWR     N/A     69  50  50 S15       29.95S
ROLLA          PTSUNNY   55  48  76 VRB3      29.76R
 ***** THE ABOVE OBSERVATIONS ARE NON NWS ARE NOT QUALITY
       CONTROLLED AND MAY MIS-REPORT RAIN FOR SNOW...
$$

  *****  WEATHER ACROSS NORTHERN MINNESOTA  *****

CITY           SKY/WX    TMP DP  RH WIND       PRES   REMARKS
FLAG ISLAND    FAIR      61  50  67 S16G22    29.87F
WARROAD        FAIR      64  52  63 S10G16    29.88S
ROSEAU         FAIR      66  48  52 S22       29.86F
HALLOCK        CLOUDY    63  52  67 S12       29.80F
THF RVR FALLS  FAIR      68  45  43 S15       29.87F
BAUDETTE       FAIR      67  47  48 SE12      29.91F
WASKISH        FAIR      66  46  48 S9        29.92F
CROOKSTON      FAIR      68  46  45 S21G28    29.84F
STEPHEN NDAWN    N/A     70  48  46 S17         N/A
GREENBUSH NDAW   N/A     66  46  48 S13         N/A
$$
  *****  WEATHER ACROSS CENTRAL AND WEST MINNESOTA  *****

CITY           SKY/WX    TMP DP  RH WIND       PRES   REMARKS
FOSSTON        FAIR      66  46  48 SE9       29.87F
BEMIDJI        FAIR      65  44  46 SE10      29.92F
PARK RAPIDS    FAIR      66  47  50 SE14      29.92F
ELBOW LAKE     FAIR      67  49  52 E15       29.86F
WADENA         FAIR      64  48  55 SE13G18   29.90F
DETROIT LAKES  FAIR      66  46  48 SE14G22   29.88F
MOORHEAD       FAIR      68  46  45 SE21      29.83F
FERGUS FALLS   FAIR      68  46  45 SE16      29.85F
MORRIS MN      FAIR      68  52  56 S20       29.86F
STAPLES        NOT AVBL
$$
  *****  WEATHER ELSEWHERE ACROSS MINNESOTA  *****

CITY           SKY/WX    TMP DP  RH WIND       PRES   REMARKS
DULUTH         FAIR      63  52  67 SE12      30.03S
INTRNTL FALLS  FAIR      64  45  49 S9G17     29.97R
ELY            FAIR      63  46  55 SE15      30.02F
CLOQUET        FAIR      63  48  59 E9        30.02F
WHEATON        FAIR      68  46  45 SE20      29.85F
BRAINERD       FAIR      64  49  57 SE13G26   29.95S
HIBBING        FAIR      63  50  62 SE15      29.99F
ALEXANDRIA     FAIR      67  50  54 SE16G24   29.90F
SAINT CLOUD    FAIR      67  53  61 SE13G21   29.93F
MINNEAPOLIS    FAIR      69  57  65 SE14      29.96F
$$

  *****  WEATHER ACROSS SOUTH DAKOTA  *****

CITY           SKY/WX    TMP DP  RH WIND       PRES   REMARKS
SIOUX FALLS    FAIR      71  63  75 SE17      29.83F
BROOKINGS        N/A     70  52  52 SE20G28   29.84
WATERTOWN      FAIR      69  44  40 SE15G25   29.82F
HURON          FAIR      69  52  54 S13G24    29.78F
SISSETON         N/A     68  49  50 S17G23    29.81F
ABERDEEN       FAIR      73  46  38 S15G29    29.78F
MITCHELL       PTSUNNY   70  56  61 SE13G26   29.79F
PIERRE         FAIR      72  53  51 SE22G33   29.69F
MOBRIDGE       FAIR      72  53  51 S26G39    29.66F
RAPID CITY     SUNNY     66  41  39 S10       29.68R
$$

  *****  SOME WEATHER IN NEARBY STATES *****

CITY           SKY/WX    TMP DP  RH WIND       PRES   REMARKS
GLASGOW MT     FAIR      49  35  58 NW12      29.75R
GREAT FALLS MT FAIR      46  28  49 NW3       29.82R
CHEYENNE WY    FAIR      74  27  17 S12       29.82F
SCOTTSBLUFF NE FAIR      62  43  49 E10       29.74S
OMAHA NE       FAIR      82  70  66 SE17      29.84F
DES MOINES IA  CLOUDY    75  67  76 S18G30    29.95R
DAVENPORT IA   FAIR      74  61  63 SW8       29.99F
CHICAGO IL     PTSUNNY   87  65  47 SE5       30.02F
EAU CLAIRE WI  FAIR      70  59  68 SE9       29.99F
LA CROSSE WI   CLOUDY    70  63  78 E5        29.99
$$

  *****  SOME NATIONAL WEATHER *****

CITY           SKY/WX    TMP DP  RH WIND       PRES   REMARKS
LA GUARDIA NY  CLOUDY    79  64  60 N13       30.00F
RALEIGH NC     FAIR      83  67  58 CALM      30.06S
ATLANTA GA     FAIR      85  65  51 S3        30.10S
NEW ORLEANS LA FAIR      85  75  72 NE7       30.04S HX  93
OKLAHOMA CITY  FAIR      85  71  63 S20       29.91R HX  90
ALBUQUERQUE NM FAIR      71  37  28 CALM      30.07S
SALT LAKE CITY PTSUNNY   55  42  61 N10       29.77R
LOS ANGELES CA PTSUNNY   67  63  87 W10       29.86S
BOISE ID       LGT RAIN  47  45  93 W6        29.83R
SEATTLE WA     LGT RAIN  52  49  89 SW5       29.92R
$$

*** WEATHER ACROSS MANITOBA...SASKATCHEWAN AND ONTARIO ***
                ***ONTARIO***

CITY           SKY/WX    TMP DP  RH WIND       PRES   REMARKS
GERALDTON      MOSUNNY   64  48  55 S7        30.09S
THUNDER BAY    MOSUNNY   63  54  72 E5        30.07F
SIOUX LOOKOUT  PTSUNNY   64  48  55 S6        29.98S
TORONTO        MOSUNNY   77  63  61 SE10      30.13S
BIG TROUT LK   SUNNY     59  48  67 SW10      29.85R
PICKLE LAKE    MOSUNNY   63  48  59 SW9       29.97R
DRYDEN         CLOUDY    61  46  59 S14G20    29.96F
KENORA         CLOUDY    61  45  55 S13G21    29.91S
$$
                *** MANITOBA***

CITY           SKY/WX    TMP DP  RH WIND       PRES   REMARKS
BRANDON        LGT RAIN  52  46  82 CALM      29.74R
DAUPHIN        PTSUNNY   57  45  62 NW2       29.65R
ISLAND LAKE    PTSUNNY   59  45  58 S6        29.71S
PILOT MOUND      N/A     57  48  72 S13         N/A
THE PAS        MOSUNNY   54  39  58 SW10      29.59R
THOMPSON       MOSUNNY   54  46  76 S6        29.56R
WINNIPEG       LGT RAIN  59  48  67 S16G22    29.79R
LYNN LAKE      PTSUNNY   43  43 100 N7        29.54R
CHURCHILL      PTSUNNY   50  46  87 SE6       29.57R
GILLAM         MOSUNNY   57  48  72 S8        29.60S
$$
                ***SASKATCHEWAN***

CITY           SKY/WX    TMP DP  RH WIND       PRES   REMARKS
ESTEVAN        PTSUNNY   54  41  62 SW6       29.71R
KINDERSLEY     PTSUNNY   43  36  75 W20       29.68R
LLOYDMINSTER   LGT RAIN  39  37  93 N10G17    29.66R
PRINCE ALBERT  MOSUNNY   46  39  76 W6        29.64R
REGINA         PTSUNNY   48  37  66 NW13G18   29.72R
YORKTON        SUNNY     50  36  57 W5        29.68R
N. BATTLEFORD  CLOUDY    43  41  93 W10       29.66R
LA RONGE       CLOUDY    45  43  93 N8        29.61R
SASKATOON      MOSUNNY   45  39  81 SW15      29.68R
SWIFT CURRENT  CLOUDY    41  36  81 W15G23    29.74R
$$
NOTE: THESE ARE AUTOMATED STATIONS WITH LIMITED QUALITY CONTROL
      "FAIR" INDICATES FEW OR NO CLOUDS BELOW 12,000 FEET WITH NO
      SIGNIFICANT WEATHER AND/OR OBSTRUCTIONS TO VISIBILITY.
      SKY/WX - SKY CONDITION AND SIGNIFICANT WEATHER.
      TMP - AIR TEMPERATURE.    DP   - DEWPOINT TEMPERATURE.
      RH  - RELATIVE HUMIDITY.  PRES - PRESSURE.
      HX  - HEAT INDEX.         WCI  - WIND CHILL INDEX.
$




USA.gov is the U.S. government's official web portal to all federal, state and local government web resources and services.